Погода в Курской

Россия / Ставропольский край     44°02′33″N   44°27′44″E
темп.,
°C
ветер,
м/с
пор.,
м/с
влажн.,
%
обл.,
%
осадки,
мм/ч
давл.,
гПа
погр.,
м
12 апреля, пн
пн1200:00+9сз227659 0.0 101620
03:00+8зсз3482100 0.0 101679
06:00+9зсз4881100 0.0 1018227
09:00+13сз5667100 0.0 1019739
12:00+15сз5565100 0.0 10191203
15:00+14сз4467100 0.1 1020900
18:00+12зсз5778100 0.0 1022438
21:00+10зсз4778100 0.0 1022287
13 апреля, вт
вт1300:00+10зсз3582100 0.0 1022229
03:00+9зсз358499 0.0 1022224
06:00+9сз2486100 0.0 1022183
09:00+11сз2280100 0.0 1022388
12:00+12сз1178100 0.0 1021545
15:00+14зсз117447 0.0 1020557
18:00+12зсз568153 0.0 1020395
21:00+9з339439 0.0 102165
14 апреля, ср
ср1400:00+8сз2396100 0.0 101876
03:00+9зсз349399 0.0 1016129
06:00+8зсз3593100 0.0 1016177
09:00+11зсз4563100 0.0 1016481
12:00+13зсз3356100 0.0 1016778
15:00+15зсз3452100 0.0 10151200
18:00+13з3673100 0.0 1016282
21:00+12з4970100 0.0 1017381
15 апреля, чт
чт1500:00+11з367645 0.0 1017163
03:00+8з458526 0.0 101780
06:00+8з34875 0.0 101775
09:00+15зсз33590 0.0 1017638
12:00+18сз33460 0.0 10151208
15:00+20ссз22360 0.0 10141495
18:00+17ссв22465 0.0 101411
21:00+14св2254100 0.0 101511
16 апреля, пт
пт1600:00+13вюв11608 0.0 101410
03:00+11ссз116777 0.0 101410
06:00+11сз227290 0.0 101518
09:00+15сз446399 0.0 1016472
12:00+18сз4454100 0.0 10161373
15:00+17сз6662100 0.4 10161083
18:00+12сз5885100 2.4 1018452
21:00+11з348866 2.8 1018145